COSMOS 529

Satellite information

Favourite Embed

Satellite Type and Status

PAYLOADIN ORBIT

Key statistics

Satellite COSMOS 529 at a glance.

Uptime

19407

Days in orbit

Revolutions

≈ 12.6

Per day

Orbit

LEO

Low Earth Orbit

Inclination

74.0

Latest

Satellite identification and parameters

Extended collection of information and parameters for COSMOS 529.

Object identification

Identified? True

Debris? False

Object name: COSMOS 529

International designator: 1972-087B

Object number (NORAD): 6264

Object ID (CCSDS): 6264

Country: COMMONWEALTH OF INDEPENDENT STATES (CIS)

Current information (Y/N): Y

RCS size: MEDIUM

Orbital parameters

Period: 114.539 minutes

Inclination: 74.0339 deg

SMA: 7812.614 km

Apoapsis: 1466.866 km

Periapsis: 1402.092 km

RAAN: 240.0386 deg

Eccentricy: 0.0041455

Argument of periapsis: 51.31 deg

Mean anomaly: 24.1346 deg

Mean motion: 12.57211068 rev/day

Mean motion (dot): 0.00000006 rev/day2

B* drag term: 0.00012987273 1/REarth

Two-line elements (TLE)

Creation date: Dec. 19, 2025, 2:08 a.m.

Reference frame: TEME

Reference center: EARTH

Epoch: Dec. 18, 2025, 8:49 p.m. UTC

TLE line 0: 0 COSMOS 529

TLE line 1: 1 06264U 72087B 25352.86794463 .00000006 00000-0 12987-3 0 9992

TLE line 2: 2 06264 74.0339 240.0386 0041455 51.3100 24.1346 12.57211068438332

Live tracking on map

Real-time ground track for satellite COSMOS 529.

In-orbit conjunctions

There are no conjunctions computed for COSMOS 529, at the moment. Check back to stay up to date, as we update our databases every day.

Go to all conjunctions

Associated space launch

Military communications satellites

COSMOS 529 was lifted into orbit during the mission ‘Kosmos-3M | Strela-1M 33-40’, on board a Kosmos-3M space rocket.

The launch took place on Nov. 1, 1972, 2:08 a.m. from 132/2.

For more information about the launch, click the button.

Launch to space Kosmos-3M | Strela-1M 33-40
Kosmos-3M | Strela-1M 33-40

Agency: N/A

Status: Launch Successful

Launch date: Nov. 1, 1972, 2:08 a.m. UTC

Rocket: Kosmos-3M

Launch pad: 132/2

Location: Plesetsk Cosmodrome, Russian Federation

...

Latest news about this satellite

There are no fresh news available about this satellite. Check back as we update our databases every day.


Newsletter sign-up

Weekly statistics, charts and insights to help you stay on top of the space industry.